Baltimore, MD

2:17 AM EDT on May 26, 2017 (GMT -0400)
Baltimore-Washington International

Weather History for KBWI - May, 2013

Change the Weather History Date:

Tuesday, May 14, 2013

  Actual Average Record
Temperature  
Mean Temperature 49 °F 62 °F  
Max Temperature 63 °F 73 °F 95 °F (1956)
Min Temperature 34 °F 51 °F 34 °F (1996)
Degree Days  
Heating Degree Days 16 5  
Month to date heating degree days 106 82  
Since 1 July heating degree days 4456 4697  
Cooling Degree Days 0 2  
Month to date cooling degree days 9 18  
Year to date cooling degree days 35 32  
Moisture  
Dew Point 32 °F    
Average Humidity 58    
Maximum Humidity 89    
Minimum Humidity 27    
Precipitation  
Precipitation 0.00 in 0.14 in 0.91 in (1938)
Month to date precipitation 2.23 1.71  
Year to date precipitation 12.66 14.75  
Snow  
Snow 0.00 in 0.00 in - ()
Month to date snowfall 0.0 0.0  
Since 1 July snowfall 8.0 20.1  
Snow Depth 0.00 in    
Sea Level Pressure  
Sea Level Pressure 30.14 in    
Wind  
Wind Speed 5 mph (WNW)    
Max Wind Speed 17 mph    
Max Gust Speed 24 mph    
Visibility 10 miles    
Events Rain    
T = Trace of Precipitation, MM = Missing Value Source: NWS Daily Summary

Daily Weather History Graph

Daily Weather History Graph

Search for Another Location

Airport or City:

Trip Planner

Search our weather history database for the weather conditions in past years. The results will help you decide how hot, cold, wet, or windy it might be!

Date:

Astronomy

May. 14, 2013 Rise Set
Actual Time 5:54 AM EDT 8:12 PM EDT
Civil Twilight 5:24 AM EDT 8:42 PM EDT
Nautical Twilight 4:47 AM EDT 9:19 PM EDT
Astronomical Twilight 4:06 AM EDT 10:00 PM EDT
Moon 9:31 AM EDT (5/14) 11:58 PM EDT (5/14)
Length of Visible Light 15h 18m
Length of Day
14h 18m
Waxing Crescent, 19% of the Moon is Illuminated
May 14
Waxing Crescent
May 18
First Quarter
May 25
Full
May 31
Last Quarter
Jun 8
New

Hourly Weather History & Observations

Time (EDT) Temp. Windchill Dew Point Humidity Pressure Visibility Wind Dir Wind Speed Gust Speed Precip Events Conditions
12:54 AM 39.9 °F - 33.1 °F 77% 30.17 in 10.0 mi Calm Calm - N/A   Clear
1:54 AM 39.0 °F 36.8 °F 33.1 °F 79% 30.17 in 10.0 mi West 3.5 mph - N/A   Clear
2:54 AM 37.9 °F 35.5 °F 32.0 °F 79% 30.17 in 10.0 mi West 3.5 mph - N/A   Clear
3:54 AM 36.0 °F 32.1 °F 30.9 °F 82% 30.17 in 10.0 mi West 4.6 mph - N/A   Clear
4:54 AM 35.1 °F - 30.9 °F 85% 30.18 in 10.0 mi Calm Calm - N/A   Clear
5:54 AM 34.0 °F 31.0 °F 30.9 °F 89% 30.19 in 10.0 mi West 3.5 mph - N/A   Scattered Clouds
6:54 AM 39.9 °F - 34.0 °F 79% 30.21 in 10.0 mi Calm Calm - N/A   Mostly Cloudy
7:54 AM 46.9 °F - 30.9 °F 54% 30.21 in 10.0 mi Calm Calm - N/A   Mostly Cloudy
8:54 AM 50.0 °F - 26.1 °F 39% 30.21 in 10.0 mi North 6.9 mph - N/A   Mostly Cloudy
9:54 AM 52.0 °F - 25.0 °F 35% 30.20 in 10.0 mi NNW 6.9 mph - N/A   Mostly Cloudy
10:54 AM 54.0 °F - 26.1 °F 34% 30.19 in 10.0 mi WNW 9.2 mph - N/A   Mostly Cloudy
11:54 AM 55.9 °F - 27.0 °F 33% 30.18 in 10.0 mi West 11.5 mph 18.4 mph N/A   Mostly Cloudy
12:54 PM 59.0 °F - 28.0 °F 31% 30.16 in 10.0 mi WNW 11.5 mph 19.6 mph N/A   Mostly Cloudy
1:54 PM 59.0 °F - 27.0 °F 29% 30.14 in 10.0 mi WNW 5.8 mph 19.6 mph N/A   Scattered Clouds
2:54 PM 62.1 °F - 28.0 °F 28% 30.12 in 10.0 mi WNW 6.9 mph - N/A   Mostly Cloudy
3:54 PM 62.1 °F - 28.0 °F 28% 30.11 in 10.0 mi NW 12.7 mph 18.4 mph N/A   Mostly Cloudy
4:54 PM 60.1 °F - 28.9 °F 31% 30.10 in 10.0 mi West 6.9 mph - N/A   Overcast
5:54 PM 60.1 °F - 30.0 °F 32% 30.08 in 10.0 mi Calm Calm - N/A   Mostly Cloudy
6:54 PM 60.1 °F - 30.9 °F 33% 30.08 in 10.0 mi Calm Calm - N/A   Overcast
7:54 PM 57.9 °F - 35.1 °F 42% 30.06 in 10.0 mi SE 3.5 mph - N/A   Overcast
8:54 PM 57.0 °F - 37.0 °F 47% 30.07 in 10.0 mi SSE 3.5 mph - 0.00 in Rain Light Rain
9:54 PM 55.9 °F - 41.0 °F 57% 30.09 in 10.0 mi ESE 3.5 mph - 0.00 in Rain Light Rain
10:54 PM 55.9 °F - 42.1 °F 60% 30.07 in 10.0 mi ESE 4.6 mph - 0.00 in   Overcast
11:54 PM 55.9 °F - 43.0 °F 62% 30.08 in 10.0 mi East 5.8 mph - N/A   Overcast